Thermopolis, WY

4:00 AM MDT on July 28, 2017 (GMT -0600)
Thermopolis

Weather History for KTBX - November, 2012

Change the Weather History Date:

Sunday, November 11, 2012

  Actual Average (KWRL) Record (KWRL)
Temperature  
Mean Temperature 12 °F -  
Max Temperature 15 °F 45 °F 73 °F (1989)
Min Temperature 10 °F 19 °F -13 °F (2012)
Degree Days  
Heating Degree Days 53    
Moisture  
Dew Point 9 °F    
Average Humidity 87    
Maximum Humidity 93    
Minimum Humidity 68    
Precipitation  
Precipitation 0.00 in - - ()
Sea Level Pressure  
Sea Level Pressure 29.96 in    
Wind  
Wind Speed 4 mph ()    
Max Wind Speed 12 mph    
Max Gust Speed -    
Averages and records for this station are not official NWS values.
T = Trace of Precipitation, MM = Missing Value Source: Averaged Metar Reports

Daily Weather History Graph

Daily Weather History Graph

Search for Another Location

Airport or City:

Trip Planner

Search our weather history database for the weather conditions in past years. The results will help you decide how hot, cold, wet, or windy it might be!

Date:

Astronomy

Nov. 11, 2012 Rise Set
Actual Time 7:02 AM MST 4:51 PM MST
Civil Twilight 6:31 AM MST 5:22 PM MST
Nautical Twilight 5:57 AM MST 5:56 PM MST
Astronomical Twilight 5:23 AM MST 6:30 PM MST
Moon 4:16 AM MST (11/11) 3:19 PM MST (11/11)
Length of Visible Light 10h 50m
Length of Day
9h 49m
Waning Crescent, 7% of the Moon is Illuminated
Nov 11
Waning Crescent
Nov 13
New
Nov 20
First Quarter
Nov 28
Full
Dec 6
Last Quarter

Hourly Weather History & Observations

Time (MST) Temp. Windchill Dew Point Humidity Pressure Visibility Wind Dir Wind Speed Gust Speed Precip Events Conditions
12:15 AM - - - N/A% 29.84 in - NW 6.9 mph - N/A   Overcast
12:35 AM - - - N/A% 29.84 in - WNW 4.6 mph - N/A   Overcast
12:55 AM - - - N/A% 29.84 in - WNW 5.8 mph - N/A   Overcast
1:15 AM - - - N/A% 29.84 in - WNW 4.6 mph - N/A   Overcast
1:35 AM - - - N/A% 29.84 in - NW 3.5 mph - N/A   Overcast
1:55 AM - - - N/A% 29.84 in - Calm Calm - N/A   Overcast
2:15 AM - - - N/A% 29.85 in - Calm Calm - N/A   Overcast
2:35 AM - - - N/A% 29.85 in - Calm Calm - N/A   Overcast
2:55 AM - - - N/A% 29.85 in - South 3.5 mph - N/A   Overcast
3:15 AM - - - N/A% 29.85 in - Calm Calm - N/A   Overcast
3:35 AM - - - N/A% 29.86 in - Calm Calm - N/A   Overcast
3:55 AM - - - N/A% 29.85 in - SW 3.5 mph - N/A   Unknown
4:15 AM - - - N/A% 29.85 in - SSE 4.6 mph - N/A   Unknown
4:35 AM - - - N/A% 29.85 in - North - - N/A   Unknown
4:55 AM - - - N/A% 29.86 in - North - - N/A   Unknown
5:15 AM - - - N/A% 29.86 in - SSW 10.4 mph - N/A   Mostly Cloudy
5:35 AM - - - N/A% 29.86 in - South 11.5 mph - N/A   Unknown
6:15 AM - - - N/A% 29.86 in - South 10.4 mph - N/A   Unknown
6:35 AM - - - N/A% 29.86 in - North - - N/A   Unknown
6:55 AM - - - N/A% 29.87 in - SSE 4.6 mph - N/A   Overcast
7:15 AM - - - N/A% 29.87 in - South 4.6 mph - N/A   Overcast
7:35 AM - - - N/A% 29.88 in - SSE 5.8 mph - N/A   Unknown
7:55 AM - - - N/A% 29.89 in - SSE 4.6 mph - N/A   Unknown
8:15 AM - - - N/A% 29.89 in - SSE 3.5 mph - N/A   Unknown
8:55 AM - - - N/A% 29.90 in - South 3.5 mph - N/A   Unknown
9:35 AM - - - N/A% 29.91 in - North - - N/A   Unknown
9:55 AM - - - N/A% 29.91 in - ESE 3.5 mph - N/A   Unknown
10:15 AM - - - N/A% 29.92 in - Calm Calm - N/A   Unknown
10:35 AM - - - N/A% 29.93 in - Calm Calm - N/A   Unknown
10:55 AM - - - N/A% 29.94 in - Calm Calm - N/A   Unknown
11:15 AM - - - N/A% 29.94 in - Calm Calm - N/A   Unknown
11:35 AM - - - N/A% 29.94 in - NW 4.6 mph - N/A   Unknown
11:55 AM - - - N/A% 29.94 in - Calm Calm - N/A   Unknown
12:15 PM - - - N/A% 29.94 in - North 3.5 mph - N/A   Unknown
12:35 PM - - - N/A% 29.94 in - Calm Calm - N/A   Unknown
12:55 PM - - - N/A% 29.94 in - Calm Calm - N/A   Unknown
1:15 PM - - - N/A% 29.95 in - Calm Calm - N/A   Unknown
1:35 PM - - - N/A% 29.95 in - ESE 4.6 mph - N/A   Unknown
1:55 PM - - - N/A% 29.96 in - NE 3.5 mph - N/A   Unknown
2:15 PM - - - N/A% 29.96 in - NNE 6.9 mph - N/A   Unknown
2:35 PM - - - N/A% 29.97 in - North 8.1 mph - N/A   Unknown
2:55 PM - - - N/A% 29.98 in - North 9.2 mph - N/A   Unknown
3:15 PM - - - N/A% 29.99 in - North 5.8 mph - N/A   Unknown
3:35 PM 12.2 °F 1.7 °F 8.6 °F 85% 30.00 in - NNW 6.9 mph - N/A   Unknown
3:55 PM 12.2 °F 0.7 °F 8.6 °F 85% 30.00 in - North 8.1 mph - N/A   Unknown
4:15 PM 10.4 °F 2.2 °F 8.6 °F 92% 30.01 in - North 4.6 mph - N/A   Unknown
4:35 PM 10.4 °F - 8.6 °F 92% 30.02 in - Calm Calm - N/A   Unknown
4:55 PM 10.4 °F - 8.6 °F 92% 30.02 in - Calm Calm - N/A   Unknown
5:15 PM 10.4 °F 2.2 °F 8.6 °F 92% 30.03 in - SSE 4.6 mph - N/A   Unknown
5:35 PM 12.2 °F - 8.6 °F 85% 30.03 in - Calm Calm - N/A   Unknown
5:55 PM 10.4 °F 2.2 °F 8.6 °F 92% 30.04 in - SE 4.6 mph - N/A   Unknown
6:15 PM 12.2 °F 6.1 °F 8.6 °F 85% 30.05 in - SSE 3.5 mph - N/A   Unknown
6:35 PM 12.2 °F 4.3 °F 8.6 °F 85% 30.06 in - SSE 4.6 mph - N/A   Unknown
6:55 PM 10.4 °F 2.2 °F 8.6 °F 92% 30.06 in - SSE 4.6 mph - N/A   Unknown
7:15 PM - - - N/A% 30.07 in - SE 5.8 mph - N/A   Unknown
7:35 PM - - - N/A% 30.07 in - SSE 3.5 mph - N/A   Unknown
7:55 PM - - - N/A% 30.08 in - SSE 4.6 mph - N/A   Unknown
8:15 PM 12.2 °F 2.9 °F 10.4 °F 92% 30.08 in - South 5.8 mph - N/A   Unknown
8:35 PM 12.2 °F 2.9 °F 8.6 °F 85% 30.09 in - South 5.8 mph - N/A   Unknown
9:15 PM 14.0 °F 6.5 °F 10.4 °F 86% 30.10 in - SSW 4.6 mph - N/A   Unknown
9:35 PM 14.0 °F 8.2 °F 10.4 °F 86% 30.11 in - South 3.5 mph - N/A   Unknown
9:55 PM 14.0 °F 8.2 °F 12.2 °F 93% 30.12 in - SSE 3.5 mph - N/A   Unknown
10:15 PM 14.0 °F 8.2 °F 12.2 °F 93% 30.12 in - South 3.5 mph - N/A   Unknown
10:35 PM 14.0 °F 8.2 °F 10.4 °F 86% 30.12 in - SSE 3.5 mph - N/A   Unknown
10:55 PM 14.0 °F - 10.4 °F 86% 30.12 in - Calm Calm - N/A   Clear
11:15 PM 14.0 °F 5.1 °F 8.6 °F 79% 30.12 in - SE 5.8 mph - N/A   Clear
11:35 PM 14.0 °F 3.9 °F 8.6 °F 79% 30.13 in - SE 6.9 mph - N/A   Clear
11:55 PM 15.8 °F 8.6 °F 6.8 °F 68% 30.13 in - ESE 4.6 mph - N/A   Clear